Regional Weather Roundup
Issued by NWS

Home | Current Version | Previous Version | Graphics & Text | Print | Product List | Glossary On
Versions: 1 2 3 4 5 6 7 8 9 10 11 12 13 14 15 16 17 18 19 20 21 22 23 24 25 26 27 28 29 30 31 32 33 34 35 36 37 38 39 40 41 42 43 44 45 46 47 48 49 50
000
ASUS43 KFSD 111002
RWRSD

WEATHER ROUNDUP FOR SOUTH DAKOTA
NATIONAL WEATHER SERVICE SIOUX FALLS SD
500 AM CDT FRI JUL 11 2014

NOTE: "FAIR" INDICATES FEW OR NO CLOUDS BELOW 12,000 FEET WITH NO
SIGNIFICANT WEATHER AND/OR OBSTRUCTIONS TO VISIBILITY.


SDZ001>005-009-010-012>017-111100-
NORTHWEST AND NORTH CENTRAL SOUTH DAKOTA

CITY           SKY/WX    TMP DP  RH WIND       PRES   REMARKS
BUFFALO          N/A     62  60  93 CALM      29.86R
FAITH            N/A     67  66  97 SW6       29.88R
MOBRIDGE       PTCLDY    63  63 100 E3        29.82R FOG
$$

SDZ012>016-024>037-041>051-057-063-072>074-111100-
SOUTHWEST AND SOUTH CENTRAL SOUTH DAKOTA

CITY           SKY/WX    TMP DP  RH WIND       PRES   REMARKS
RAPID CTY ARPT CLOUDY    65  62  90 SE7       29.93R
PIERRE         PTCLDY    64  64 100 CALM      29.83R
CUSTER         MOCLDY    66  53  63 NW5       30.08S
ELLSWORTH AFB  CLOUDY    69  61  76 VRB1      29.93R
PHILIP         CLOUDY    67  62  84 W8        29.87R
PINE RIDGE     CLOUDY    65  63  93 W3        29.96R
WINNER         FAIR      72  62  71 S8        29.89F
$$

SDZ004>011-016>023-039-040-111100-
NORTHEAST SOUTH DAKOTA

CITY           SKY/WX    TMP DP  RH WIND       PRES   REMARKS
ABERDEEN       CLEAR     67  67 100 S8        29.82R
WATERTOWN      CLEAR     69  66  90 S12       29.87R
SISSETON         N/A     74  68  81 W14G24    29.80R
$$

SDZ017-020-022-023-036>040-048>070-111100-
SOUTHEAST SOUTH DAKOTA

CITY           SKY/WX    TMP DP  RH WIND       PRES   REMARKS
SIOUX FALLS    CLOUDY    71  67  87 S20G26    29.93R
HURON          PTCLDY    73  66  78 S12       29.84R
CHAMBERLAIN    MOCLDY    71  68  92 SW8       29.86F
MITCHELL       CLOUDY    73  67  81 S16G28    29.86R
YANKTON        CLOUDY    70  66  88 SE9       29.93F
$$

ABBREVIATIONS USED IN REMARKS
   TC - TEMPERATURE IN CELSIUS
  WCI - WIND CHILL INDEX
   HX - HEAT INDEX
  VSB - VISIBILITY




USA.gov is the U.S. government's official web portal to all federal, state and local government web resources and services.